Regional Weather Roundup
Issued by NWS

Home | Current Version | Previous Version | Graphics & Text | Print | Product List | Glossary On
Versions: 1 2 3 4 5 6 7 8 9 10 11 12 13 14 15 16 17 18 19 20 21 22 23 24 25 26 27 28 29 30
278
ASUS45 KTFX 152010
RWRMT
MONTANA REGIONAL WEATHER ROUNDUP
NATIONAL WEATHER SERVICE GREAT FALLS MT
100 PM MST SUN JAN 15 2017

NOTE: "FAIR" INDICATES FEW OR NO CLOUDS BELOW 12000 FEET WITH NO
SIGNIFICANT WEATHER AND/OR OBSTRUCTIONS TO VISIBILITY.

MTZ001>007-043-152100-
WEST OF THE DIVIDE

CITY           SKY/WX    TMP DP  RH WIND       PRES   REMARKS
KALISPELL      LGT SNOW  17  12  80 CALM      30.28F
MISSOULA       MOSUNNY    1  -1  91 CALM      30.31F
BUTTE          CLOUDY    11   3  70 CALM      30.10F
MULLAN PASS    PTSUNNY   22  13  68 NW3       30.11S
ANACONDA         N/A     14   1  57 NE5       30.13F
DEER LODGE       N/A      9   0  66 CALM      30.19F
EUREKA           N/A     19   9  63 CALM      30.33S
HAMILTON         N/A      3  -2  78 NE3       30.26F
RONAN            N/A      4  -2  76 MISG      30.29S VSB 0
$$

MTZ008-052>055-152100-
SOUTHWEST MONTANA

CITY           SKY/WX    TMP DP  RH WIND       PRES   REMARKS
BOZEMAN        CLOUDY     9   3  77 CALM      30.14F
DILLON         CLOUDY    25   1  35 SW10      30.11F WCI  15
W YELLOWSTONE  CLOUDY     7   3  85 CALM      30.10F
ENNIS          SUNNY     10   3  72 VRB6      30.13F WCI   1
TWIN BRIDGES     N/A     11  -4  50 E5        30.10F
$$

MTZ009-010-012-014-046-048-049-054-152100-
EAST SLOPES AND CENTRAL MONTANA

CITY           SKY/WX    TMP DP  RH WIND       PRES   REMARKS
CUT BANK       MOSUNNY   36  18  48 W23       29.92F WCI  24
GREAT FALLS    CLOUDY    31  13  47 SW21      29.97F WCI  18
MALMSTROM AFB  CLOUDY    31  19  60 SW21      29.98F WCI  19
HELENA         CLOUDY     3  -3  76 CALM      30.16F HAZE
AUGUSTA          N/A     36  15  41 W16       29.95F WCI  26
BOWMANS CRNR     N/A     23  10  56 S23       29.97F WCI   8
CHOTEAU          N/A     41  14  33 SW9       29.96F
CONRAD           N/A     38  19  46 S14       29.96F WCI  30
FAIRFIELD        N/A     28  14  54 S21       29.95F WCI  15
POWER            N/A     28  14  55 SW16      29.96F WCI  17
RAYNESFORD       N/A     39  14  36 CALM      29.98F
ULM              N/A     29  13  53 MISG      30.00F
$$

MTZ011-013-016-021-045-047-050-051-152100-
NORTH CENTRAL MONTANA

CITY           SKY/WX    TMP DP  RH WIND       PRES   REMARKS
HAVRE          CLOUDY    28  19  69 SW22      29.94F WCI  14
LEWISTOWN      CLOUDY    31  12  45 SE5       29.96F
N BAR RANCH      N/A     39   9  28 NW5       29.96F
CHINOOK          N/A     12   1  62 E5        29.95F
DENTON           N/A     29  17  61 SW14      29.92F WCI  18
FORT BENTON      N/A     36  19  51 MISG      29.98F
GEYSER           N/A     36  17  46 W15       29.95F WCI  27
GRASS RANGE      N/A     40  14  35 SW14      29.92F
JUDITH GAP       N/A     28  14  56 SW13      29.94F WCI  17
ROY              N/A     37  22  54 MISG      29.93F
STANFORD         N/A     32  19  57 CALM      29.95F
WINIFRED         N/A     35  18  50 SW12      29.95F WCI  27
$$

MTZ017>020-022>027-061-062-152100-
NORTHEAST MONTANA

CITY           SKY/WX    TMP DP  RH WIND       PRES   REMARKS
GLASGOW        CLOUDY    10   2  69 S6        29.95F WCI   0
JORDAN           N/A     30  16  56 W9        29.96F WCI  22
SIDNEY         CLOUDY    17   8  67 S13       29.99F WCI   4
WOLF POINT     CLOUDY     9   0  67 SW6       29.99F WCI  -1
PLENTYWOOD       N/A     10   5  79 E7        29.94F WCI   0
POPLAR           N/A      9   1  72 W5        29.99F
SCOBEY           N/A     22   5  47 S2        29.91F
$$

MTZ028>42-056>058-152100-
SOUTHCENTRAL AND SOUTHEAST MONTANA

CITY           SKY/WX    TMP DP  RH WIND       PRES   REMARKS
BAKER          CLOUDY    26  12  55 W10       30.01F WCI  16
BILLINGS       CLOUDY    27   8  44 SW20      30.00F WCI  13
LIVINGSTON     CLOUDY    24   9  52 NW14      30.04F WCI  12
MILES CITY     CLOUDY    11   1  64 S10       30.02F WCI  -3
BIG TIMBER     SUNNY     32  10  40 W29G37    29.98F WCI  18
EKALAKA          N/A     31   5  33 SW9       29.98F WCI  23
FORSYTH          N/A     19   7  58 CALM      30.01F
HARLOWTON        N/A     34  13  43 W30       29.96F WCI  20
LAUREL           N/A     22   8  54 SW14      29.98F WCI   9
$$

REGIONAL REPORTS...DAKOTAS

CITY           SKY/WX    TMP DP  RH WIND       PRES   REMARKS
WILLISTON      CLOUDY    16   5  62 SW12      29.98F WCI   3
MINOT          CLOUDY    24  11  57 SW15      29.95F WCI  11
DICKINSON      CLOUDY    23  12  62 SW13      29.97F WCI  11
BEACH            N/A     25  10  54 SW18      30.00F WCI  11
CROSBY           N/A     16   9  73 S16       29.96S WCI   0
TIOGA            N/A     14   9  79 SW9       29.97F WCI   2
WATFORD CITY     N/A     19   9  63 SW14      29.97F WCI   6
BISMARCK       CLOUDY    10   1  67 CALM      30.06F
GRAND FORKS    CLOUDY    15   7  70 S13       30.04F WCI   1
FARGO          SUNNY     20  12  71 S9        30.10F WCI   9
BUFFALO SD       N/A     21  11  65 NW3       29.95F
RAPID CITY     CLOUDY    29  14  53 SE5       30.02F
$$

REGIONAL REPORTS...WYOMING/IDAHO/WASHINGTON

CITY           SKY/WX    TMP DP  RH WIND       PRES   REMARKS
GILLETTE       SUNNY     33  17  51 S6        30.00F WCI  28
SHERIDAN       CLOUDY    21   6  52 VRB6      29.99F WCI  13
BUFFALO WY     CLOUDY    35   3  26 S7        29.99F WCI  29
CODY           CLOUDY    32  12  43 N3        30.00F
YELLOWSTONE LA   N/A      1  -5  75 CALM      30.07F
IDAHO FALLS    CLOUDY     7   3  84 SW6       30.16F WCI  -3
SALMON         CLOUDY   -11 -11 100 CALM      30.42F
BOISE          LGT SNOW  13   7  77 W5        30.37F
SPOKANE        CLOUDY     9   8  96 CALM      30.32F
$$

REGIONAL REPORTS...ALBERTA

CITY           SKY/WX    TMP DP  RH WIND       PRES   REMARKS
EDMONTON       SUNNY     41  21  45 W10       29.82F
CALGARY        MOSUNNY   41  16  36 W17       29.88F
LETHBRIDGE     PTSUNNY   34  19  55 W28G36    29.90F WCI  20
MEDICINE HAT   PTSUNNY   36  23  60 SW14      29.88F WCI  27
WATERTON GATE    N/A     34   7  32 SW30G46     N/A  WCI  20
CARDSTON         N/A     37  12  35 W18G30      N/A  WCI  27
MILK RIVER       N/A     37  21  52 W14         N/A  WCI  29
ONEFOUR          N/A     21  10  63 NW3         N/A
$$

REGIONAL REPORTS...SASKATCHEWAN

CITY           SKY/WX    TMP DP  RH WIND       PRES   REMARKS
SWIFT CURRENT  PTSUNNY   30  21  69 W10       29.82F WCI  21
REGINA         PTSUNNY   19  12  73 S6        29.87F WCI  11
SASKATOON      CLOUDY    25  18  74 SW9       29.83F WCI  15
CYPRESS HILLS    N/A     36  14  41 NW9         N/A  WCI  29
VAL MARIE        N/A     12   5  73 E3          N/A
ROCKGLEN         N/A     23  12  63 W25         N/A  WCI   7
ASSINIBOIA       N/A     41  23  48 NW7         N/A
$$




USA.gov is the U.S. government's official web portal to all federal, state and local government web resources and services.